Location: Gönnheim
(49.4488°N, 8.2383°E)
Time: 00:28:01
(UTC+00:00)

Cosmos 1328 Rocket - Pass Details

Date: 19 May 2025
Orbit: 596 x 618 km, 82.5° (Epoch: 22 June)

Event Time Altitude Azimuth Distance (km) Brightness Sun altitude
Exits shadow 23:23:16 36° 121° (ESE) 954 4.2 -20.6°
Maximum altitude 23:24:05 40° 92° (E) 889 4.3 -20.6°
Drops below altitude 10° 23:28:08 10° 23° (NNE) 1,961 7.1 -20.6°
Sets 23:30:27 0° 16° (NNE) 2,873 8.4 -20.5°
